This demonstration page uses our WeatherBlox Daily Observations layout. Learn more.

Left ArrowRight Arrow

39.01783, -85.05884

Hourly Observations for June 25, 2015

Temp ( °F °C ) Dew Point ( °F °C ) Humidity (%) Winds ( mph kmh ) Pressure ( in mb ) Visibility ( mi km ) Precip ( " mm )
12:52 am 00:52 Mostly Clear 64 17.8 60 15.6 87 87 N N/A 30.08 1019 10 16 N/A
1:52 am 01:52 Mostly Cloudy 68 20 60 15.6 76 76 N N/A 30.06 1018 10 16 N/A
2:52 am 02:52 Mostly Clear 69 20.6 60 15.6 73 73 N N/A 30.04 1017 10 16 N/A
3:52 am 03:52 Mostly Clear 70 21.1 60 15.6 71 71 NNE 3 6 30.03 1017 10 16 N/A
4:52 am 04:52 Cloudy 67 19.4 60 15.6 79 79 N N/A 30.02 1017 10 16 N/A
5:52 am 05:52 Cloudy 65 18.3 60 15.6 84 84 ESE 5 7 30.02 1017 10 16 N/A
6:52 am 06:52 Cloudy 66 18.9 61 16.1 84 84 N N/A 30.04 1017 10 16 N/A
7:52 am 07:52 Cloudy 69 20.6 61 16.1 76 76 SSE 3 6 30.03 1017 10 16 N/A
8:35 am 08:35 Cloudy with Thunderstorms 70 21 61 16 73 73 WNW 7 11 30.12 1020 9 14 N/A
8:44 am 08:44 Mostly Cloudy 70 21 61 16 73 73 NNW 8 13 30.09 1019 8 13 N/A
8:52 am 08:52 Cloudy with Light Thunderstorms 69 20.6 62 16.7 78 78 NNW 8 13 30.11 1020 4 6 0.02 0.51
9:45 am 09:45 Windy with Storms Likely 66 19 64 18 94 94 WNW 21 33 30.21 1023 1 2 0.15 3.81
9:52 am 09:52 Cloudy with Heavy Thunderstorms 65 18.3 63 17.2 93 93 N N/A 30.15 1021 1 1 0.34 8.64
10:05 am 10:05 Cloudy with Thunderstorms 64 18 63 17 94 94 ESE 9 15 30.12 1020 3 5 0.09 2.29
10:15 am 10:15 Cloudy with Light Rain 64 18 64 18 100 100 ESE 13 20 30.09 1019 3 5 0.12 3.05
10:52 am 10:52 Partly Cloudy 67 19.4 64 17.8 91 91 SE 9 15 30.05 1018 8 13 0.13 3.30
11:52 am 11:52 Cloudy 70 21.1 64 17.8 82 82 SSE 10 17 30.04 1017 10 16 N/A
12:52 pm 12:52 Mostly Cloudy 75 23.9 65 18.3 71 71 SSE 10 17 30.01 1016 10 16 N/A
1:52 pm 13:52 Cloudy 77 25 66 18.9 69 69 S 7 11 29.99 1016 10 16 N/A
2:52 pm 14:52 Partly Cloudy 80 26.7 68 20 67 67 SSW 12 19 29.96 1015 10 16 N/A
3:52 pm 15:52 Partly Cloudy 82 27.8 69 20.6 65 65 SW 10 17 29.96 1015 10 16 N/A
4:52 pm 16:52 Mostly Cloudy 82 27.8 68 20 63 63 W 16 26 29.95 1014 10 16 N/A
5:52 pm 17:52 Mostly Cloudy 83 28.3 69 20.6 63 63 W 9 15 29.94 1014 10 16 N/A
6:52 pm 18:52 Mostly Cloudy 82 27.8 68 20 63 63 W 9 15 29.93 1014 10 16 N/A
7:52 pm 19:52 Cloudy 80 26.7 68 20 67 67 WNW 8 13 29.92 1013 10 16 N/A
8:52 pm 20:52 Mostly Cloudy 79 26.1 67 19.4 67 67 NW 6 9 29.93 1013 10 16 N/A
9:52 pm 21:52 Mostly Cloudy 75 23.9 67 19.4 76 76 W 3 6 29.93 1014 10 16 N/A
10:52 pm 22:52 Cloudy 76 24.4 68 20 77 77 N N/A 29.94 1014 10 16 N/A
11:52 pm 23:52 Cloudy 72 22.2 68 20 87 87 S 3 6 29.93 1014 10 16 N/A

Powered by AerisWeather